Location: CCZU
(31.6840°N, 119.9550°E)
Time: 07:43:38
(UTC+08:00)

ISS - Visible Passes

Search period start: 07 December 2021 00:00
Search period end: 17 December 2021 00:00
Orbit: 417 x 422 km, 51.6° (Epoch: 06 December)

Date Brightness Start Highest point End Pass type
(mag) Time Alt. Az. Time Alt. Az. Time Alt. Az.
07 Dec -3.2 18:08:11 10° NNW 18:11:23 38° NE 18:11:47 36° ENE visible
08 Dec -2.4 17:21:09 10° NNW 17:23:53 22° NE 17:26:37 10° E visible
08 Dec -1.7 18:57:47 10° WNW 19:00:40 26° SW 19:00:51 26° SW visible
09 Dec -3.0 18:10:04 10° NW 18:13:21 52° SW 18:16:39 10° SSE visible
10 Dec -3.8 17:22:36 10° NW 17:25:59 75° NE 17:29:21 10° SE visible
11 Dec -0.4 18:13:14 10° W 18:15:04 14° SW 18:16:53 10° SSW visible
12 Dec -1.1 17:24:55 10° WNW 17:27:47 26° SW 17:30:39 10° S visible
16 Dec -0.4 06:06:43 10° SSE 06:08:40 15° SE 06:10:38 10° E visible
